Time,TemperatureF,DewpointF,PressureIn,WindDirection,WindDirectionDegrees,WindSpeedMPH,WindSpeedGustMPH,Humidity,HourlyPrecipIn,Conditions,Clouds,dailyrainin,SolarRadiationWatts/m^2,SoftwareType,DateUTC
2013-02-26 00:21:00,62.0,62.0,-100.00,WSW,247,4.0,7.0,100,0.00,,,0.01,0.000000,,2013-02-26 10:21:00,
2013-02-26 00:31:00,62.0,62.0,-100.00,WSW,247,4.0,7.0,100,0.00,,,0.01,0.000000,,2013-02-26 10:31:00,
2013-02-26 00:41:00,62.0,62.0,-100.00,WSW,247,4.0,7.0,100,0.00,,,0.01,0.000000,,2013-02-26 10:41:00,
2013-02-26 00:51:00,62.0,62.0,-100.00,WSW,247,4.0,7.0,100,0.00,,,0.01,0.000000,,2013-02-26 10:51:00,
2013-02-26 01:21:00,65.0,65.0,-100.00,NNW,347,3.0,7.0,100,0.00,,,0.01,0.000000,,2013-02-26 11:21:00,
2013-02-26 01:31:00,65.0,65.0,-100.00,NNW,347,3.0,7.0,100,0.00,,,0.01,0.000000,,2013-02-26 11:31:00,
2013-02-26 01:41:00,65.0,65.0,-100.00,NNW,347,3.0,7.0,100,0.00,,,0.01,0.000000,,2013-02-26 11:41:00,
2013-02-26 01:52:00,65.0,65.0,-100.00,NNW,347,3.0,7.0,100,0.00,,,0.01,0.000000,,2013-02-26 11:52:00,
2013-02-26 02:22:00,65.0,64.0,-100.00,WNW,291,3.0,8.0,97,0.01,,,0.02,0.000000,,2013-02-26 12:22:00,
2013-02-26 02:32:00,65.0,64.0,-100.00,WNW,291,3.0,8.0,97,0.01,,,0.02,0.000000,,2013-02-26 12:32:00,
2013-02-26 02:42:00,65.0,64.0,-100.00,WNW,291,3.0,8.0,97,0.01,,,0.02,0.000000,,2013-02-26 12:42:00,
2013-02-26 02:52:00,65.0,64.0,-100.00,WNW,291,3.0,8.0,97,0.01,,,0.02,0.000000,,2013-02-26 12:52:00,
2013-02-26 03:21:00,61.0,61.0,-100.00,NE,34,2.0,9.0,100,0.00,,,0.02,0.000000,,2013-02-26 13:21:00,
2013-02-26 03:31:00,61.0,61.0,-100.00,NE,34,2.0,9.0,100,0.00,,,0.02,0.000000,,2013-02-26 13:31:00,
2013-02-26 03:42:00,61.0,61.0,-100.00,NE,34,2.0,9.0,100,0.00,,,0.02,0.000000,,2013-02-26 13:42:00,
2013-02-26 03:51:00,61.0,61.0,-100.00,NE,34,2.0,9.0,100,0.00,,,0.02,0.000000,,2013-02-26 13:51:00,
2013-02-26 04:21:00,64.0,63.0,-100.00,North,0,2.0,11.0,96,0.00,,,0.02,0.000000,,2013-02-26 14:21:00,
2013-02-26 04:31:00,64.0,63.0,-100.00,North,0,2.0,11.0,96,0.00,,,0.02,0.000000,,2013-02-26 14:31:00,
2013-02-26 04:41:00,64.0,63.0,-100.00,North,0,2.0,11.0,96,0.00,,,0.02,0.000000,,2013-02-26 14:41:00,
2013-02-26 04:52:00,64.0,63.0,-100.00,North,0,2.0,11.0,96,0.00,,,0.02,0.000000,,2013-02-26 14:52:00,
2013-02-26 05:21:00,64.0,63.0,-100.00,NNW,329,3.0,9.0,97,0.00,,,0.02,0.000000,,2013-02-26 15:21:00,
2013-02-26 05:32:00,64.0,63.0,-100.00,NNW,329,3.0,9.0,97,0.00,,,0.02,0.000000,,2013-02-26 15:32:00,
2013-02-26 05:41:00,64.0,63.0,-100.00,NNW,329,3.0,9.0,97,0.00,,,0.02,0.000000,,2013-02-26 15:41:00,
2013-02-26 05:51:00,64.0,63.0,-100.00,NNW,329,3.0,9.0,97,0.00,,,0.02,0.000000,,2013-02-26 15:51:00,
2013-02-26 06:22:00,64.0,64.0,-100.00,NNE,28,4.0,10.0,100,0.00,,,0.02,0.000000,,2013-02-26 16:22:00,
2013-02-26 06:31:00,64.0,64.0,-100.00,NNE,28,4.0,10.0,100,0.00,,,0.02,0.000000,,2013-02-26 16:31:00,
2013-02-26 06:41:00,64.0,64.0,-100.00,NNE,28,4.0,10.0,100,0.00,,,0.02,0.000000,,2013-02-26 16:41:00,
2013-02-26 06:51:00,64.0,64.0,-100.00,NNE,28,4.0,10.0,100,0.00,,,0.02,0.000000,,2013-02-26 16:51:00,
2013-02-26 07:21:00,65.0,64.0,-100.00,NNE,33,5.0,13.0,97,0.00,,,0.02,0.000000,,2013-02-26 17:21:00,
2013-02-26 07:32:00,65.0,64.0,-100.00,NNE,33,5.0,13.0,97,0.00,,,0.02,0.000000,,2013-02-26 17:32:00,
2013-02-26 07:41:00,65.0,64.0,-100.00,NNE,33,5.0,13.0,97,0.00,,,0.02,0.000000,,2013-02-26 17:41:00,
2013-02-26 07:52:00,65.0,64.0,-100.00,NNE,33,5.0,13.0,97,0.00,,,0.02,0.000000,,2013-02-26 17:52:00,
2013-02-26 09:22:00,68.0,64.0,-100.00,ENE,57,4.0,17.0,88,-99.99,,,0.02,92.000000,,2013-02-26 19:22:00,
2013-02-26 09:31:00,68.0,64.0,-100.00,ENE,57,4.0,17.0,88,-99.99,,,0.02,92.000000,,2013-02-26 19:31:00,
2013-02-26 09:41:00,68.0,64.0,-100.00,ENE,57,4.0,17.0,88,-99.99,,,0.02,92.000000,,2013-02-26 19:41:00,
2013-02-26 09:51:00,68.0,64.0,-100.00,ENE,57,4.0,17.0,88,-99.99,,,0.02,92.000000,,2013-02-26 19:51:00,
2013-02-26 10:21:00,69.0,64.0,-100.00,NE,56,7.0,13.0,84,0.00,,,0.02,187.000000,,2013-02-26 20:21:00,
2013-02-26 10:31:00,69.0,64.0,-100.00,NE,56,7.0,13.0,84,0.00,,,0.02,187.000000,,2013-02-26 20:31:00,
2013-02-26 10:41:00,69.0,64.0,-100.00,NE,56,7.0,13.0,84,0.00,,,0.02,187.000000,,2013-02-26 20:41:00,
2013-02-26 10:51:00,69.0,64.0,-100.00,NE,56,7.0,13.0,84,0.00,,,0.02,187.000000,,2013-02-26 20:51:00,
2013-02-26 11:21:00,71.0,63.0,-100.00,NE,52,9.0,16.0,77,0.00,,,0.02,449.000000,,2013-02-26 21:21:00,
2013-02-26 11:31:00,71.0,63.0,-100.00,NE,52,9.0,16.0,77,0.00,,,0.02,449.000000,,2013-02-26 21:31:00,
2013-02-26 11:41:00,71.0,63.0,-100.00,NE,52,9.0,16.0,77,0.00,,,0.02,449.000000,,2013-02-26 21:41:00,
2013-02-26 11:51:00,71.0,63.0,-100.00,NE,52,9.0,16.0,77,0.00,,,0.02,449.000000,,2013-02-26 21:51:00,
2013-02-26 12:21:00,72.0,66.0,-100.00,ENE,64,9.0,18.0,81,0.00,,,0.02,452.000000,,2013-02-26 22:21:00,
2013-02-26 12:31:00,72.0,66.0,-100.00,ENE,64,9.0,18.0,81,0.00,,,0.02,452.000000,,2013-02-26 22:31:00,
2013-02-26 12:41:00,72.0,66.0,-100.00,ENE,64,9.0,18.0,81,0.00,,,0.02,452.000000,,2013-02-26 22:41:00,
2013-02-26 12:51:00,72.0,66.0,-100.00,ENE,64,9.0,18.0,81,0.00,,,0.02,452.000000,,2013-02-26 22:51:00,
2013-02-26 13:21:00,71.0,65.0,-100.00,NE,53,8.0,21.0,82,0.00,,,0.02,431.000000,,2013-02-26 23:21:00,
2013-02-26 13:31:00,71.0,65.0,-100.00,NE,53,8.0,21.0,82,0.00,,,0.02,431.000000,,2013-02-26 23:31:00,
2013-02-26 13:41:00,71.0,65.0,-100.00,NE,53,8.0,21.0,82,0.00,,,0.02,431.000000,,2013-02-26 23:41:00,
2013-02-26 13:51:00,71.0,65.0,-100.00,NE,53,8.0,21.0,82,0.00,,,0.02,431.000000,,2013-02-26 23:51:00,
2013-02-26 14:21:00,71.0,67.0,-100.00,ENE,72,6.0,20.0,87,0.00,,,0.02,705.000000,,2013-02-27 00:21:00,
2013-02-26 14:31:00,71.0,67.0,-100.00,ENE,72,6.0,20.0,87,0.00,,,0.02,705.000000,,2013-02-27 00:31:00,
2013-02-26 14:41:00,71.0,67.0,-100.00,ENE,72,6.0,20.0,87,0.00,,,0.02,705.000000,,2013-02-27 00:41:00,
2013-02-26 14:51:00,71.0,67.0,-100.00,ENE,72,6.0,20.0,87,0.00,,,0.02,705.000000,,2013-02-27 00:51:00,
2013-02-26 15:21:00,72.0,66.0,-100.00,ENE,63,8.0,22.0,81,0.00,,,0.02,608.000000,,2013-02-27 01:21:00,
2013-02-26 15:31:00,72.0,66.0,-100.00,ENE,63,8.0,22.0,81,0.00,,,0.02,608.000000,,2013-02-27 01:31:00,
2013-02-26 15:41:00,72.0,66.0,-100.00,ENE,63,8.0,22.0,81,0.00,,,0.02,608.000000,,2013-02-27 01:41:00,
2013-02-26 15:51:00,72.0,66.0,-100.00,ENE,63,8.0,22.0,81,0.00,,,0.02,608.000000,,2013-02-27 01:51:00,
2013-02-26 16:22:00,69.0,65.0,-100.00,NE,55,8.0,21.0,86,0.00,,,0.02,377.000000,,2013-02-27 02:22:00,
2013-02-26 16:32:00,69.0,65.0,-100.00,NE,55,8.0,21.0,86,0.00,,,0.02,377.000000,,2013-02-27 02:32:00,
2013-02-26 16:41:00,69.0,65.0,-100.00,NE,55,8.0,21.0,86,0.00,,,0.02,377.000000,,2013-02-27 02:41:00,
2013-02-26 16:52:00,69.0,65.0,-100.00,NE,55,8.0,21.0,86,0.00,,,0.02,377.000000,,2013-02-27 02:52:00,
2013-02-26 17:21:00,68.0,63.0,-100.00,NE,46,9.0,22.0,85,0.00,,,0.02,365.000000,,2013-02-27 03:21:00,
2013-02-26 17:32:00,68.0,63.0,-100.00,NE,46,9.0,22.0,85,0.00,,,0.02,365.000000,,2013-02-27 03:32:00,
2013-02-26 17:41:00,68.0,63.0,-100.00,NE,46,9.0,22.0,85,0.00,,,0.02,365.000000,,2013-02-27 03:41:00,
2013-02-26 17:51:00,68.0,63.0,-100.00,NE,46,9.0,22.0,85,0.00,,,0.02,365.000000,,2013-02-27 03:51:00,
2013-02-26 18:11:00,67.0,67.0,-100.00,ENE,60,6.0,17.0,99,0.00,,,0.02,47.000000,,2013-02-27 04:11:00,
2013-02-26 18:21:00,67.0,67.0,-100.00,ENE,60,6.0,17.0,99,0.00,,,0.02,47.000000,,2013-02-27 04:21:00,
2013-02-26 18:31:00,67.0,67.0,-100.00,ENE,60,6.0,17.0,99,0.00,,,0.02,47.000000,,2013-02-27 04:31:00,
2013-02-26 18:41:00,67.0,67.0,-100.00,ENE,60,6.0,17.0,99,0.00,,,0.02,47.000000,,2013-02-27 04:41:00,
2013-02-26 18:51:00,67.0,67.0,-100.00,ENE,60,6.0,17.0,99,0.00,,,0.02,47.000000,,2013-02-27 04:51:00,
2013-02-26 19:22:00,66.0,66.0,-100.00,NNE,13,4.0,14.0,99,0.00,,,0.02,8.000000,,2013-02-27 05:22:00,
2013-02-26 19:32:00,66.0,66.0,-100.00,NNE,13,4.0,14.0,99,0.00,,,0.02,8.000000,,2013-02-27 05:32:00,
2013-02-26 19:41:00,66.0,66.0,-100.00,NNE,13,4.0,14.0,99,0.00,,,0.02,8.000000,,2013-02-27 05:41:00,
2013-02-26 19:52:00,66.0,66.0,-100.00,NNE,13,4.0,14.0,99,0.00,,,0.02,8.000000,,2013-02-27 05:52:00,
2013-02-26 20:21:00,65.0,65.0,-100.00,SE,134,2.0,15.0,100,0.00,,,0.02,0.000000,,2013-02-27 06:21:00,
2013-02-26 20:32:00,65.0,65.0,-100.00,SE,134,2.0,15.0,100,0.00,,,0.02,0.000000,,2013-02-27 06:32:00,
2013-02-26 20:41:00,65.0,65.0,-100.00,SE,134,2.0,15.0,100,0.00,,,0.02,0.000000,,2013-02-27 06:41:00,
2013-02-26 20:51:00,65.0,65.0,-100.00,SE,134,2.0,15.0,100,0.00,,,0.02,0.000000,,2013-02-27 06:51:00,
2013-02-26 21:21:00,65.0,65.0,-100.00,ENE,57,7.0,15.0,100,0.00,,,0.01,0.000000,,2013-02-27 07:21:00,
2013-02-26 21:31:00,65.0,65.0,-100.00,ENE,57,7.0,15.0,100,0.00,,,0.01,0.000000,,2013-02-27 07:31:00,
2013-02-26 21:41:00,65.0,65.0,-100.00,ENE,57,7.0,15.0,100,0.00,,,0.01,0.000000,,2013-02-27 07:41:00,
2013-02-26 21:51:00,65.0,65.0,-100.00,ENE,57,7.0,15.0,100,0.00,,,0.01,0.000000,,2013-02-27 07:51:00,
2013-02-26 22:21:00,63.0,63.0,-100.00,NNE,13,5.0,11.0,100,0.00,,,0.01,0.000000,,2013-02-27 08:21:00,
2013-02-26 22:31:00,63.0,63.0,-100.00,NNE,13,5.0,11.0,100,0.00,,,0.01,0.000000,,2013-02-27 08:31:00,
2013-02-26 22:41:00,63.0,63.0,-100.00,NNE,13,5.0,11.0,100,0.00,,,0.01,0.000000,,2013-02-27 08:41:00,
2013-02-26 22:52:00,63.0,63.0,-100.00,NNE,13,5.0,11.0,100,0.00,,,0.01,0.000000,,2013-02-27 08:52:00,
2013-02-26 23:21:00,64.0,64.0,-100.00,SE,135,2.0,8.0,100,0.01,,,0.02,0.000000,,2013-02-27 09:21:00,
2013-02-26 23:32:00,64.0,64.0,-100.00,SE,135,2.0,8.0,100,0.01,,,0.02,0.000000,,2013-02-27 09:32:00,
2013-02-26 23:41:00,64.0,64.0,-100.00,SE,135,2.0,8.0,100,0.01,,,0.02,0.000000,,2013-02-27 09:41:00,
2013-02-26 23:51:00,64.0,64.0,-100.00,SE,135,2.0,8.0,100,0.01,,,0.02,0.000000,,2013-02-27 09:51:00,